{"data":{"norad_id":56156,"epoch":"2026-09-21T11:57:45.818208Z","epoch_age_seconds":100942,"freshness":"FRESH","line1":"1 56156U 23047D   26264.49844697  .00001359  00000+0  77858-4 0  9996","line2":"2 56156  97.5031  90.2529 0001476  87.5593 272.5807 15.14289972192373","mean_motion":15.14289972,"eccentricity":0.0001476,"inclination_deg":97.5031,"raan_deg":90.2529,"arg_perigee_deg":87.5593,"mean_anomaly_deg":272.5807,"bstar":7.7858e-5,"rev_number":19237,"period_min":95.094072246818,"perigee_km":522.11635877183,"apogee_km":524.15361426225,"semimajor_km":6901.271986517,"source":"CELESTRAK","updated_at":"2026-09-22T09:00:25.728532Z"}}